Meteo Giornale » Osservazioni meteo Barbados » Grantley Adams
ore: 03:00 - Osservazioni Meteo Grantley Adams
Lat. 13° 4' N Lon. 59° 29' W Alt. 50 metri s.l.m.
27 °C
Nuvoloso
Temp. 24 Ore
27 °C
31 °C
Est
24 Km/h
Dew point 24 °C
Umidità 83 %
Visibilità 10 Km
Il sole sorge alle ore 05:46
Il sole tramonta alle ore 18:08
| Data e Ora | Cielo e Fenomeni | T °C | DP °C | Um. % | Pres. hPa | Vis. km | Vento km/h | |
|---|---|---|---|---|---|---|---|---|
| Oggi h: 03:00 | Nuvoloso | 27 | 24 | 83 | 1013 | 10 | E 24 | |
| Oggi h: 02:00 | Nuvoloso | 28 | 24 | 78 | 1013 | 10 | E 20.3 | |
| Oggi h: 01:00 | Nuvoloso | 28 | 24 | 78 | 1014 | 10 | E 20.3 | |
| Oggi h: 00:00 | Poco Nuvoloso | 28 | 24 | 78 | 1014 | 10 | E 22.2 | |
| Ieri h: 23:00 | Nuvoloso | 28 | 25 | 83 | 1015 | 10 | E 20.3 | |
| Ieri h: 22:00 | Nuvoloso | 28 | 25 | 83 | 1015 | 10 | E 22.2 | |
| Ieri h: 21:00 | Nuvoloso | 28 | 25 | 83 | 1015 | 10 | E 27.8 | |
| Ieri h: 20:00 | Nuvoloso | 28 | 25 | 83 | 1014 | 10 | E 25.9 | |
| Ieri h: 19:00 | Poco Nuvoloso | 28 | 25 | 83 | 1013 | 10 | E 24 | |
| Ieri h: 18:00 | Poco Nuvoloso | 28 | 25 | 83 | 1013 | 10 | E 27.8 | |
| Ieri h: 17:00 | Poco Nuvoloso | 29 | 25 | 79 | 1012 | 10 | E 31.5 | |
| Ieri h: 16:00 | Poco Nuvoloso | 30 | 25 | 74 | 1012 | 10 | E/NE 33.3 | |
| Ieri h: 15:00 | Poco Nuvoloso | 30 | 25 | 74 | 1013 | 10 | E 35.2 | |
| Ieri h: 14:00 | Poco Nuvoloso | 31 | 26 | 74 | 1013 | 10 | E 33.3 | |
| Ieri h: 13:00 | Poco Nuvoloso | 31 | 25 | 70 | 1014 | 10 | E 37 | |
| Ieri h: 12:00 | Nuvoloso | 30 | 26 | 79 | 1014 | 10 | E/SE 37 | |
| Ieri h: 11:00 | Nuvoloso | 31 | 26 | 74 | 1015 | 10 | E/SE 33.3 | |
| Ieri h: 10:00 | Nuvoloso | 30 | 26 | 79 | 1015 | 10 | E 33.3 | |
| Ieri h: 09:00 | Nuvoloso | 30 | 26 | 79 | 1014 | 10 | E 31.5 | |
| Ieri h: 08:00 | Nuvoloso | 29 | 25 | 79 | 1014 | 10 | E 33.3 | |
| Ieri h: 07:00 | Nuvoloso | 28 | 25 | 83 | 1013 | 10 | E 27.8 | |
| Ieri h: 06:00 | Poco Nuvoloso | 28 | 25 | 83 | 1013 | 10 | E 24 | |
| Ieri h: 05:00 | Molto Nuvoloso | 28 | 25 | 83 | 1013 | 10 | E 27.8 | |
| Ieri h: 04:00 | Molto Nuvoloso | 28 | 25 | 83 | 1012 | 10 | E/SE 33.3 | |



